Wind from 132 at 2 knots gusting 10

Air temperature 15.6° C
Dewpoint 10.9° C

Last reported at 2014-Apr-23 08:38 UTC.
Time now 2014-Apr-23 09:26 UTC

Location: N 45°57' W 001°22'.
View on Google Maps.

See reports from other nearby stations

Tides Stations Pressure Air Temp Water Temp Dewpoint Dewpoint depression Visibility Wind Speed Wind Dir Waves Ship positions

  
sailing weather and tide predictions

DW7262 La Rochelle FR weather

date/time (UTC)wind fromknots sea level pressurealtimeterstation pressurevisibilityair tempwater tempwave heightnotes
2014-Apr-23 08:38 132 2 gusting 10 15.6
2014-Apr-23 08:28 111 5 gusting 10 15.0
2014-Apr-23 07:54 105 3 gusting 7 13.9
2014-Apr-23 07:43 105 4 gusting 7 13.3
2014-Apr-23 07:34 122 3 gusting 7 13.3
2014-Apr-23 06:36 114 2 gusting 6 11.1
2014-Apr-23 06:26 106 3 gusting 6 10.6
2014-Apr-22 21:09 215 0 gusting 2 12.2
2014-Apr-22 20:59 218 0 gusting 3 12.2
2014-Apr-22 20:36 228 12.2
2014-Apr-22 20:02 221 12.2
2014-Apr-22 19:40 224 0 gusting 3 12.8
2014-Apr-22 19:18 228 0 gusting 2 12.8
2014-Apr-22 19:08 253 0 gusting 3 12.8
2014-Apr-22 18:45 256 1 gusting 6 13.3
2014-Apr-22 17:59 208 3 gusting 6 13.9
2014-Apr-22 17:49 271 3 gusting 6 14.4
2014-Apr-22 17:26 260 4 gusting 8 14.4
2014-Apr-22 17:16 255 4 gusting 7 15.0
2014-Apr-22 17:06 290 4 gusting 9 15.0
2014-Apr-22 16:56 260 5 gusting 10 15.0
2014-Apr-22 16:35 232 5 gusting 10 15.0
2014-Apr-22 16:25 242 5 gusting 10 15.0
2014-Apr-22 16:15 263 5 gusting 9 15.0
2014-Apr-22 16:06 256 5 gusting 10 15.0
2014-Apr-22 15:55 242 4 gusting 11 15.6
2014-Apr-22 15:45 221 5 gusting 11 15.6
2014-Apr-22 15:11 257 4 gusting 9 15.6
2014-Apr-22 15:01 225 5 gusting 9 15.0
2014-Apr-22 14:39 255 5 gusting 8 15.6
2014-Apr-22 14:29 233 4 gusting 8 15.6
2014-Apr-22 14:07 255 4 gusting 9 15.0
2014-Apr-22 13:45 218 5 gusting 8 15.6
2014-Apr-22 13:35 283 5 gusting 10 15.6
2014-Apr-22 13:24 271 5 gusting 10 15.0
2014-Apr-22 13:14 264 6 gusting 9 15.0
2014-Apr-22 13:04 236 6 gusting 9 15.0
2014-Apr-22 12:54 253 5 gusting 10 15.0
2014-Apr-22 12:31 269 5 gusting 10 15.0
2014-Apr-22 12:09 281 6 gusting 9 15.0
2014-Apr-22 11:48 255 5 gusting 12 15.0
2014-Apr-22 11:37 259 6 gusting 12 15.0
2014-Apr-22 11:15 256 4 gusting 9 15.0
2014-Apr-22 10:53 298 4 gusting 8 15.0
2014-Apr-22 10:43 288 5 gusting 8 15.0
2014-Apr-22 09:57 239 5 gusting 10 14.4
2014-Apr-22 09:47 290 5 gusting 10 14.4
2014-Apr-22 09:38 240 4 gusting 9 14.4
2014-Apr-22 09:28 295 4 gusting 8 14.4
2014-Apr-22 08:42 271 4 gusting 11 13.9
2014-Apr-22 08:32 303 4 gusting 11 13.3
2014-Apr-22 08:22 308 5 gusting 11 13.3
2014-Apr-22 07:48 285 4 gusting 8 13.3
2014-Apr-22 07:13 284 3 gusting 7 13.3
2014-Apr-21 09:18 149 1 gusting 5 15.0
2014-Apr-21 09:08 113 1 gusting 5 14.4